Location: Klein M�hlingen
(51.9472°N, 11.7453°E)
Time: 01:27:08
(UTC+00:00)

Meteor 2-2 Rocket - Pass Details

Date: 09 April 2020
Orbit: 853 x 928 km, 81.3° (Epoch: 03 June)

Event Time Altitude Azimuth Distance (km) Brightness Sun altitude
Exits shadow 22:24:30 73° 288° (WNW) 902 4.3 -29.1°
Drops below altitude 10° 22:30:08 10° 10° (N) 2,499 7.4 -29.3°
Sets 22:32:34 0° 12° (NNE) 3,438 8.3 -29.4°
